| time (UTC) | temp F | wind direction | speed MPH | gust MPH | rain 1hr in | rain 24hr in | rain mn in | humidity % | barometer mb |
| 20260503173832 | 62 | 121 | 2.0 | 5.0 | 0.02 | 0.40 | 0.40 | 94 | 1014.3 |
| 20260503172333 | 62 | 82 | 2.0 | 5.0 | 0.04 | 0.40 | 0.40 | 94 | 1014.4 |
| 20260503170834 | 62 | 107 | 2.0 | 8.0 | 0.06 | 0.40 | 0.40 | 94 | 1014.7 |
| 20260503150811 | 63 | 90 | 1.0 | 1.0 | 0.17 | 0.25 | 0.25 | 92 | 1016.3 |
| 20260503130811 | 64 | 270 | 0.0 | 1.0 | 0.04 | 0.05 | 0.05 | 84 | 1017.5 |
| 20260503110812 | 65 | 270 | 0.0 | 1.0 | 0.01 | 0.01 | 0.01 | 83 | 1017.5 |
| 20260503080813 | 72 | 90 | 2.0 | 5.0 | 0.00 | 0.00 | 0.00 | 51 | 1015.5 |
| 20260503072313 | 74 | 130 | 5.0 | 9.0 | 0.00 | 0.00 | 0.00 | 46 | 1015.1 |
| 20260503070811 | 74 | 137 | 2.0 | 3.0 | 0.00 | 0.00 | 0.00 | 45 | 1015.1 |
| 20260503053812 | 78 | 82 | 2.0 | 6.0 | 0.00 | 0.00 | 0.00 | 42 | 1015.5 |
| 20260503052311 | 78 | 89 | 8.0 | 13.0 | 0.00 | 0.00 | 0.00 | 42 | 1015.6 |
| 20260503050812 | 77 | 118 | 6.0 | 8.0 | 0.00 | 0.00 | 0.00 | 44 | 1015.6 |
| 20260503045312 | 76 | 147 | 3.0 | 8.0 | 0.00 | 0.00 | 0.00 | 46 | 1015.7 |
| 20260503043812 | 75 | 90 | 3.0 | 6.0 | 0.00 | 0.00 | 0.00 | 49 | 1015.8 |
| 20260503042311 | 77 | 45 | 5.0 | 8.0 | 0.00 | 0.00 | 0.00 | 43 | 1015.8 |
| 20260503040812 | 77 | 133 | 6.0 | 10.0 | 0.00 | 0.00 | 0.00 | 43 | 1015.9 |
| 20260503035312 | 77 | 170 | 6.0 | 12.0 | 0.00 | 0.00 | 0.00 | 43 | 1015.8 |
| 20260503033812 | 76 | 76 | 8.0 | 14.0 | 0.00 | 0.00 | 0.00 | 44 | 1016.0 |
| 20260503032313 | 76 | 69 | 8.0 | 13.0 | 0.00 | 0.00 | 0.00 | 45 | 1016.3 |
| 20260503030813 | 75 | 45 | 7.0 | 10.0 | 0.00 | 0.00 | 0.00 | 47 | 1016.7 |
| 20260503025312 | 75 | 133 | 3.0 | 5.0 | 0.00 | 0.00 | 0.00 | 48 | 1016.9 |
| 20260503023812 | 75 | 135 | 3.0 | 8.0 | 0.00 | 0.00 | 0.00 | 47 | 1017.3 |
| 20260503022313 | 75 | 90 | 2.0 | 9.0 | 0.00 | 0.00 | 0.00 | 48 | 1017.4 |
| 20260503020813 | 74 | 104 | 7.0 | 10.0 | 0.00 | 0.00 | 0.00 | 49 | 1017.7 |
| 20260503015312 | 74 | 55 | 7.0 | 13.0 | 0.00 | 0.00 | 0.00 | 50 | 1018.0 |
| 20260503013812 | 73 | 90 | 6.0 | 7.0 | 0.00 | 0.00 | 0.00 | 51 | 1018.1 |
| 20260503012312 | 74 | 118 | 9.0 | 14.0 | 0.00 | 0.00 | 0.00 | 49 | 1018.4 |
| 20260503010813 | 74 | 128 | 6.0 | 12.0 | 0.00 | 0.00 | 0.00 | 44 | 1018.4 |
| 20260503005311 | 74 | 45 | 8.0 | 13.0 | 0.00 | 0.00 | 0.00 | 45 | 1018.3 |
| 20260503003811 | 73 | 68 | 12.0 | 15.0 | 0.00 | 0.00 | 0.00 | 47 | 1018.5 |
| 20260503002313 | 72 | 144 | 6.0 | 13.0 | 0.00 | 0.00 | 0.00 | 50 | 1018.5 |
| 20260503000813 | 72 | 129 | 6.0 | 13.0 | 0.00 | 0.00 | 0.00 | 51 | 1018.9 |
| 20260502235312 | 71 | 134 | 10.0 | 15.0 | 0.00 | 0.00 | 0.00 | 52 | 1018.9 |
| 20260502233811 | 71 | 81 | 6.0 | 12.0 | 0.00 | 0.00 | 0.00 | 52 | 1018.9 |
| 20260502232313 | 71 | 120 | 7.0 | 13.0 | 0.00 | 0.00 | 0.00 | 52 | 1019.0 |
| 20260502230812 | 70 | 66 | 7.0 | 12.0 | 0.00 | 0.00 | 0.00 | 53 | 1019.0 |
| 20260502225312 | 69 | 90 | 5.0 | 7.0 | 0.00 | 0.00 | 0.00 | 54 | 1019.1 |
| 20260502223811 | 68 | 65 | 3.0 | 8.0 | 0.00 | 0.00 | 0.00 | 54 | 1019.2 |
| 20260502222313 | 68 | 93 | 5.0 | 8.0 | 0.00 | 0.00 | 0.00 | 54 | 1019.0 |
| 20260502220812 | 68 | 53 | 9.0 | 14.0 | 0.00 | 0.00 | 0.00 | 54 | 1018.6 |
| 20260502215312 | 68 | 121 | 8.0 | 13.0 | 0.00 | 0.00 | 0.00 | 54 | 1018.4 |
| 20260502213811 | 67 | 68 | 8.0 | 12.0 | 0.00 | 0.00 | 0.00 | 54 | 1018.4 |
| 20260502212313 | 67 | 133 | 8.0 | 12.0 | 0.00 | 0.00 | 0.00 | 55 | 1018.2 |
| 20260502210813 | 67 | 90 | 6.0 | 8.0 | 0.00 | 0.00 | 0.00 | 55 | 1018.0 |
| 20260502205312 | 66 | 97 | 3.0 | 6.0 | 0.00 | 0.00 | 0.00 | 56 | 1018.0 |
| 20260502203813 | 66 | 90 | 7.0 | 10.0 | 0.00 | 0.00 | 0.00 | 56 | 1017.7 |
| 20260502202312 | 66 | 135 | 5.0 | 7.0 | 0.00 | 0.00 | 0.00 | 55 | 1017.9 |
| 20260502200813 | 66 | 90 | 5.0 | 7.0 | 0.00 | 0.00 | 0.00 | 55 | 1017.7 |
| 20260502195312 | 67 | 90 | 6.0 | 9.0 | 0.00 | 0.00 | 0.00 | 55 | 1017.7 |
| 20260502193812 | 67 | 99 | 5.0 | 7.0 | 0.00 | 0.00 | 0.00 | 55 | 1017.5 |
| 20260502192311 | 67 | 111 | 6.0 | 9.0 | 0.00 | 0.00 | 0.00 | 54 | 1017.4 |
| 20260502190812 | 67 | 61 | 6.0 | 13.0 | 0.00 | 0.00 | 0.00 | 55 | 1017.4 |
| 20260502185313 | 67 | 73 | 5.0 | 8.0 | 0.00 | 0.00 | 0.00 | 55 | 1017.4 |
| 20260502183813 | 67 | 128 | 7.0 | 9.0 | 0.00 | 0.00 | 0.00 | 55 | 1017.5 |
| 20260502182312 | 67 | 72 | 5.0 | 7.0 | 0.00 | 0.00 | 0.00 | 56 | 1017.2 |
| 20260502180811 | 67 | 105 | 6.0 | 10.0 | 0.00 | 0.00 | 0.00 | 56 | 1017.1 |